This is the latest recevied weather packets stored in our database for station/object KC0CAU. If no packets are shown the sender has not sent any weather packets the latest 1 day(s).
| Time | Temp. | Humidity | Pressure | Rain* | Wind** | Luminosity | Snow |
|---|---|---|---|---|---|---|---|
| 1778049056 | -0.56° C | 68% | 1020.7 hPa | 0 mm | - | - | - |
| 1778048151 | 0° C | 67% | 1020.6 hPa | 0 mm | - | - | - |
| 1778047260 | 0° C | 66% | 1020.4 hPa | 0 mm | - | - | - |
| 1778046346 | 0° C | 65% | 1020.4 hPa | 0 mm | - | - | - |
| 1778045445 | 0.56° C | 65% | 1020.3 hPa | 0 mm | - | - | - |
| 1778042744 | 0° C | 63% | 1020.1 hPa | 0 mm | - | - | - |
| 1778041840 | 0.56° C | 61% | 1020 hPa | 0 mm | - | - | - |
| 1778039135 | 1.67° C | 58% | 1019.8 hPa | 0 mm | - | - | - |
| 1778038233 | 1.67° C | 57% | 1019.8 hPa | 0 mm | - | - | - |
| 1778037333 | 2.22° C | 56% | 1019.7 hPa | 0 mm | - | - | - |
| 1778036436 | 2.22° C | 56% | 1019.6 hPa | 0 mm | - | - | - |
| 1778035590 | 2.78° C | 56% | 1019.6 hPa | 0 mm | - | - | - |
| 1778034628 | 2.78° C | 55% | 1019.4 hPa | 0 mm | - | - | - |
| 1778033729 | 2.78° C | 55% | 1019.2 hPa | 0 mm | - | - | - |
| 1778031929 | 3.33° C | 53% | 1018.6 hPa | 0 mm | - | - | - |
| 1778030123 | 3.89° C | 51% | 1018.5 hPa | 0 mm | - | - | - |
| 1778029282 | 4.44° C | 50% | 1018.4 hPa | 0 mm | - | - | - |
| 1778027419 | 5° C | 48% | 1018.3 hPa | 0 mm | - | - | - |
| 1778026519 | 5° C | 48% | 1018.3 hPa | 0 mm | - | - | - |
| 1778022916 | 5.56° C | 47% | 1018.2 hPa | 0 mm | - | - | - |
| 1778021112 | 5.56° C | 47% | 1017.8 hPa | 0 mm | - | - | - |
| 1778019311 | 5.56° C | 49% | 1017.6 hPa | 0 mm | - | - | - |
* Rain latest hour (hover to see other rain measurements)
** Current wind speed in m/s (hover to see current wind gust speed)